Gulkana, AK

1:15 AM AKDT on June 24, 2017 (GMT -0800)
Gulkana

Weather History for PAGK - February, 2014

Change the Weather History Date:

Sunday, February 23, 2014

  Actual Average Record
Temperature  
Mean Temperature -12 °F -  
Max Temperature -2 °F 18 °F 43 °F (1970)
Min Temperature -23 °F -5 °F -35 °F (1982)
Degree Days  
Heating Degree Days 77    
Moisture  
Dew Point -20 °F    
Average Humidity 80    
Maximum Humidity 91    
Minimum Humidity 66    
Precipitation  
Precipitation 0.00 in - - ()
Sea Level Pressure  
Sea Level Pressure 30.48 in    
Wind  
Wind Speed 2 mph (NNW)    
Max Wind Speed 6 mph    
Max Gust Speed -    
Visibility 8 miles    
Events      
Averages and records for this station are not official NWS values.
T = Trace of Precipitation, MM = Missing Value Source: NWS Daily Summary

Daily Weather History Graph

Daily Weather History Graph

Search for Another Location

Airport or City:

Trip Planner

Search our weather history database for the weather conditions in past years. The results will help you decide how hot, cold, wet, or windy it might be!

Date:

Astronomy

Feb. 23, 2014 Rise Set
Actual Time 8:02 AM AKST 5:48 PM AKST
Civil Twilight 7:17 AM AKST 6:34 PM AKST
Nautical Twilight 6:25 AM AKST 7:26 PM AKST
Astronomical Twilight 5:33 AM AKST 8:18 PM AKST
Moon 4:11 AM AKST (2/23) 10:57 AM AKST (2/23)
Length of Visible Light 11h 17m
Length of Day
9h 45m
Last Quarter, 37% of the Moon is Illuminated
Feb 23
Last Quarter
Feb 28
New
Mar 8
First Quarter
Mar 16
Full
Mar 23
Last Quarter

Hourly Weather History & Observations

Time (AKST) Temp. Windchill Dew Point Humidity Pressure Visibility Wind Dir Wind Speed Gust Speed Precip Events Conditions
12:53 AM -25.1 °F -36.5 °F -29.9 °F 78% 30.61 in 10.0 mi North 3.5 mph - N/A   Clear
1:25 AM -26.0 °F -40.2 °F -31.0 °F 77% 30.35 in 10.0 mi North 4.6 mph - N/A   Scattered Clouds
1:33 AM -23.1 °F -38.9 °F -29.0 °F 74% 30.35 in 10.0 mi NNW 5.8 mph - N/A   Mostly Cloudy
1:53 AM -22.0 °F -33.0 °F -27.9 °F 74% 30.60 in 10.0 mi NNW 3.5 mph - N/A   Overcast
2:49 AM -18.4 °F -31.4 °F -22.0 °F 84% 30.36 in 4.0 mi NW 4.6 mph - N/A   Overcast
3:01 AM -18.0 °F -30.9 °F -20.9 °F 87% 30.36 in 1.2 mi NW 4.6 mph - N/A   Overcast
3:14 AM -18.0 °F -28.5 °F -20.9 °F 87% 30.36 in 0.8 mi NW 3.5 mph - N/A   Overcast
3:34 AM -18.0 °F - -20.0 °F 91% 30.36 in 1.2 mi Calm Calm - N/A   Overcast
3:47 AM -18.4 °F - -20.2 °F 91% 30.36 in 3.0 mi Calm Calm - N/A   Overcast
3:53 AM -18.0 °F -28.5 °F -20.9 °F 87% 30.59 in 8.0 mi NW 3.5 mph - N/A   Overcast
4:03 AM -17.0 °F -27.2 °F -22.0 °F 78% 30.36 in 10.0 mi NW 3.5 mph - N/A   Overcast
4:53 AM -18.0 °F -33.0 °F -22.0 °F 82% 30.58 in 7.0 mi NNW 5.8 mph - N/A   Overcast
5:46 AM -17.0 °F - -22.0 °F 78% 30.34 in 10.0 mi Calm Calm - N/A   Overcast
5:53 AM -18.0 °F - -23.1 °F 78% 30.58 in 10.0 mi Calm Calm - N/A   Overcast
6:09 AM -18.9 °F - -23.1 °F 81% 30.34 in 10.0 mi Calm Calm - N/A   Overcast
6:53 AM -18.0 °F -30.9 °F -24.0 °F 74% 30.59 in 10.0 mi NE 4.6 mph - N/A   Overcast
7:53 AM -18.0 °F -28.5 °F -24.0 °F 74% 30.60 in 10.0 mi NNE 3.5 mph - N/A   Overcast
8:53 AM -18.0 °F - -20.9 °F 87% 30.61 in 8.0 mi Calm Calm - N/A   Overcast
9:53 AM -15.0 °F -25.0 °F -20.0 °F 78% 30.61 in 8.0 mi North 3.5 mph - N/A   Overcast
10:48 AM -11.2 °F - -14.8 °F 84% 30.34 in 10.0 mi Calm Calm - N/A   Overcast
10:53 AM -11.9 °F - -15.0 °F 86% 30.60 in 10.0 mi Calm Calm - N/A   Overcast
11:53 AM -11.0 °F - -13.0 °F 91% 30.59 in 10.0 mi Calm Calm - N/A   Mostly Cloudy
12:04 PM -9.9 °F - -13.0 °F 86% 30.33 in 10.0 mi Calm Calm - N/A   Scattered Clouds
12:53 PM -8.0 °F - -11.9 °F 83% 30.57 in 10.0 mi Calm Calm - N/A   Clear
1:53 PM -6.0 °F - -9.9 °F 83% 30.54 in 10.0 mi Calm Calm - N/A   Clear
2:53 PM -4.0 °F - -9.0 °F 79% 30.51 in 10.0 mi Calm Calm - N/A   Clear
3:53 PM -2.0 °F - -7.1 °F 79% 30.49 in 10.0 mi Calm Calm - N/A   Clear
4:53 PM -2.9 °F - -7.1 °F 82% 30.48 in 10.0 mi Calm Calm - N/A   Clear
5:53 PM -8.0 °F - -11.0 °F 86% 30.47 in 10.0 mi Calm Calm - N/A   Clear
6:53 PM -11.9 °F - -18.0 °F 74% 30.47 in 10.0 mi Calm Calm - N/A   Clear
7:53 PM -18.0 °F - -23.1 °F 78% 30.48 in 10.0 mi Calm Calm - N/A   Clear
8:53 PM -18.9 °F - -24.0 °F 78% 30.47 in 10.0 mi Calm Calm - N/A   Clear
9:53 PM -20.9 °F - -27.0 °F 73% 30.47 in 10.0 mi Calm Calm - N/A   Clear
10:53 PM -22.0 °F - -27.9 °F 74% 30.45 in 10.0 mi Calm Calm - N/A   Clear
11:53 PM -23.1 °F -38.9 °F -27.9 °F 78% 30.45 in 10.0 mi North 5.8 mph - N/A   Clear